DL7AND-1 Weather Reports


Display with metric or nautical units.
time (UTC)temp
F
wind
direction
speed
MPH
gust
MPH
rain 1hr
in
rain 24hr
in
rain mn
in
humidity
%
barometer
mb
20260505013638 62 0.0 0.0 0.00 0.00 0.00 1000.9
20260505012614 62 0.0 0.0 0.00 0.00 0.00 1000.8
20260505011638 62 0.0 0.0 0.00 0.00 0.00 1000.9
20260505010614 62 0.0 0.0 0.00 0.00 0.00 1001.0
20260505005638 62 0.0 0.0 0.00 0.00 0.00 1001.2
20260505004614 62 0.0 0.0 0.00 0.00 0.00 1001.1
20260505003638 63 0.0 0.0 0.00 0.00 0.00 1001.2
20260505002614 63 0.0 0.0 0.00 0.00 0.00 1001.4
20260505001638 63 0.0 0.0 0.00 0.00 0.00 1001.4
20260505000614 63 0.0 0.0 0.00 0.00 0.00 1001.6
20260504235638 63 0.0 0.0 0.00 0.00 0.00 1001.6
20260504234614 63 0.0 0.0 0.00 0.00 0.00 1001.7
20260504233638 63 0.0 0.0 0.00 0.00 0.00 1001.7
20260504232614 63 0.0 0.0 0.00 0.00 0.00 1001.6
20260504231638 63 0.0 0.0 0.00 0.00 0.00 1001.8
20260504230614 63 0.0 0.0 0.00 0.00 0.00 1001.7
20260504225638 63 0.0 0.0 0.00 0.00 0.00 1001.9
20260504224614 64 0.0 0.0 0.00 0.00 0.00 1001.8
20260504223638 64 0.0 0.0 0.00 0.00 0.00 1002.2
20260504222634 64 0.0 0.0 0.00 0.00 0.00 1001.9
20260504221638 65 0.0 0.0 0.00 0.00 0.00 1002.0
20260504220634 65 0.0 0.0 0.00 0.00 0.00 1002.0
20260504215638 65 0.0 0.0 0.00 0.00 0.00 1002.0
20260504214614 66 0.0 0.0 0.00 0.00 0.00 1002.2
20260504213638 66 0.0 0.0 0.00 0.00 0.00 1002.3
20260504212614 66 0.0 0.0 0.00 0.00 0.00 1002.4
20260504211638 67 0.0 0.0 0.00 0.00 0.00 1002.2
20260504210614 67 0.0 0.0 0.00 0.00 0.00 1002.3
20260504205638 67 0.0 0.0 0.00 0.00 0.00 1002.1
20260504204123 68 0.0 0.0 0.00 0.00 0.00 1002.4
20260504203059 68 0.0 0.0 0.00 0.00 0.00 1002.4
20260504202123 69 0.0 0.0 0.00 0.00 0.00 1002.2
20260504201059 69 0.0 0.0 0.00 0.00 0.00 1002.0
20260504200123 69 0.0 0.0 0.00 0.00 0.00 1002.1
20260504195059 69 0.0 0.0 0.00 0.00 0.00 1002.2
20260504194143 69 0.0 0.0 0.00 0.00 0.00 1002.1
20260504193059 70 0.0 0.0 0.00 0.00 0.00 1002.1
20260504192123 70 0.0 0.0 0.00 0.00 0.00 1002.1
20260504191119 70 0.0 0.0 0.00 0.00 0.00 1002.1
20260504190123 71 0.0 0.0 0.00 0.00 0.00 1002.0
20260504185059 71 0.0 0.0 0.00 0.00 0.00 1002.0
20260504184123 71 0.0 0.0 0.00 0.00 0.00 1001.9
20260504183059 71 0.0 0.0 0.00 0.00 0.00 1001.9
20260504182123 71 0.0 0.0 0.00 0.00 0.00 1001.9
20260504181059 71 0.0 0.0 0.00 0.00 0.00 1001.6
20260504180123 72 0.0 0.0 0.00 0.00 0.00 1001.8
20260504175119 72 0.0 0.0 0.00 0.00 0.00 1001.8
20260504174123 73 0.0 0.0 0.00 0.00 0.00 1001.8
20260504173059 73 0.0 0.0 0.00 0.00 0.00 1001.7
20260504172124 73 0.0 0.0 0.00 0.00 0.00 1001.7
20260504171059 73 0.0 0.0 0.00 0.00 0.00 1001.6
20260504170123 73 0.0 0.0 0.00 0.00 0.00 1001.7
20260504160123 74 0.0 0.0 0.00 0.00 0.00 1001.7
20260504151059 75 0.0 0.0 0.00 0.00 0.00 1001.8
20260504150123 75 0.0 0.0 0.00 0.00 0.00 1001.9
20260504141059 75 0.0 0.0 0.00 0.00 0.00 1002.1
20260504140123 75 0.0 0.0 0.00 0.00 0.00 1002.2
20260504130123 76 0.0 0.0 0.00 0.00 0.00 1002.4
20260504120123 75 0.0 0.0 0.00 0.00 0.00 1002.4
20260504110123 75 0.0 0.0 0.00 0.00 0.00 1002.7
20260504100123 75 0.0 0.0 0.00 0.00 0.00 1003.0
20260504090123 75 0.0 0.0 0.00 0.00 0.00 1003.1
20260504081059 72 0.0 0.0 0.00 0.00 0.00 1002.9
20260504080123 72 0.0 0.0 0.00 0.00 0.00 1002.8
20260504070123 72 0.0 0.0 0.00 0.00 0.00 1002.5
20260504060123 74 0.0 0.0 0.00 0.00 0.00 1002.2
20260504050123 67 0.0 0.0 0.00 0.00 0.00 1001.8
20260504045059 67 0.0 0.0 0.00 0.00 0.00 1001.7
20260504044123 68 0.0 0.0 0.00 0.00 0.00 1001.7
20260504043059 68 0.0 0.0 0.00 0.00 0.00 1001.5
20260504042123 68 0.0 0.0 0.00 0.00 0.00 1001.3
20260504041059 68 0.0 0.0 0.00 0.00 0.00 1001.4
20260504040143 68 0.0 0.0 0.00 0.00 0.00 1001.2
20260504035059 69 0.0 0.0 0.00 0.00 0.00 1001.3
20260504034123 69 0.0 0.0 0.00 0.00 0.00 1001.3
20260504033059 69 0.0 0.0 0.00 0.00 0.00 1001.1
20260504032123 69 0.0 0.0 0.00 0.00 0.00 1001.4
20260504031059 69 0.0 0.0 0.00 0.00 0.00 1001.7
20260504030123 69 0.0 0.0 0.00 0.00 0.00 1001.9
20260504025119 69 0.0 0.0 0.00 0.00 0.00 1001.8
20260504024123 69 0.0 0.0 0.00 0.00 0.00 1001.5
20260504023059 69 0.0 0.0 0.00 0.00 0.00 1001.5
20260504022123 69 0.0 0.0 0.00 0.00 0.00 1001.6
20260504021059 70 0.0 0.0 0.00 0.00 0.00 1001.7
20260504020123 70 0.0 0.0 0.00 0.00 0.00 1001.4
20260504015059 70 0.0 0.0 0.00 0.00 0.00 1001.5
20260504014143 70 0.0 0.0 0.00 0.00 0.00 1001.5